Pine Bluffs, WY

12:44 AM MST on February 06, 2016 (GMT -0700)
Pine Bluffs Muni, Pine Bluffs

Weather History for K82V - January, 2014

Change the Weather History Date:

Saturday, January 18, 2014

  Actual Average (KCYS) Record (KCYS)
Temperature  
Mean Temperature 36 °F 29 °F  
Max Temperature 46 °F 40 °F 63 °F (1880)
Min Temperature 26 °F 18 °F -29 °F (1984)
Degree Days  
Heating Degree Days 29 36  
Month to date heating degree days 649  
Since 1 July heating degree days 3552  
Cooling Degree Days 0 0  
Month to date cooling degree days 0  
Year to date cooling degree days 0  
Moisture  
Dew Point 16 °F    
Average Humidity 45    
Maximum Humidity 69    
Minimum Humidity 27    
Precipitation  
Precipitation 0.00 in 0.01 in 0.51 in (1980)
Month to date precipitation 0.19  
Year to date precipitation 0.19  
Snow  
Snow 0.00 in 0.20 in 6.20 in (1980)
Month to date snowfall 3.4  
Since 1 July snowfall 26.1  
Snow Depth -    
Sea Level Pressure  
Sea Level Pressure 30.12 in    
Wind  
Wind Speed 18 mph (WNW)    
Max Wind Speed 37 mph    
Max Gust Speed 46 mph    
Visibility 10 miles    
Events      
T = Trace of Precipitation, MM = Missing Value Source: NWS Daily Summary

Daily Weather History Graph

Daily Weather History Graph

Search for Another Location

Airport or City:

Trip Planner

Search our weather history database for the weather conditions in past years. The results will help you decide how hot, cold, wet, or windy it might be!

Date:

Astronomy

Jan. 18, 2014 Rise Set
Actual Time 7:18 AM MST 4:56 PM MST
Civil Twilight 6:48 AM MST 5:26 PM MST
Nautical Twilight 6:14 AM MST 6:00 PM MST
Astronomical Twilight 5:41 AM MST 6:33 PM MST
Moon 7:42 PM MST (1/18) 8:17 AM MST (1/18)
Length of Visible Light 10h 38m
Length of Day
9h 38m
Waning Gibbous, 94% of the Moon is Illuminated
Jan 18
Waning Gibbous
Jan 23
Last Quarter
Jan 30
New
Feb 6
First Quarter
Feb 14
Full

Hourly Weather History & Observations

Time (MST) Temp. Windchill Dew Point Humidity Pressure Visibility Wind Dir Wind Speed Gust Speed Precip Events Conditions
12:15 AM 32.0 °F 20.8 °F 17.6 °F 55% 30.05 in 10.0 mi WNW 17.3 mph - N/A   Clear
12:35 AM 33.8 °F 22.2 °F 17.6 °F 52% 30.04 in 10.0 mi WNW 20.7 mph 25.3 mph N/A   Clear
12:55 AM 33.8 °F 22.2 °F 17.6 °F 52% 30.04 in 10.0 mi WNW 20.7 mph - N/A   Clear
1:15 AM 33.8 °F 22.5 °F 17.6 °F 52% 30.04 in 10.0 mi NW 19.6 mph 25.3 mph N/A   Clear
1:35 AM 33.8 °F 21.9 °F 15.8 °F 48% 30.05 in 10.0 mi WNW 21.9 mph 27.6 mph N/A   Clear
1:55 AM 33.8 °F 22.8 °F 15.8 °F 48% 30.05 in 10.0 mi WNW 18.4 mph - N/A   Clear
2:15 AM 33.8 °F 22.5 °F 15.8 °F 48% 30.06 in 10.0 mi WNW 19.6 mph 24.2 mph N/A   Clear
2:35 AM 33.8 °F 22.5 °F 15.8 °F 48% 30.07 in 10.0 mi WNW 19.6 mph 26.5 mph N/A   Clear
2:55 AM 33.8 °F 22.2 °F 14.0 °F 44% 30.07 in 10.0 mi WNW 20.7 mph 25.3 mph N/A   Clear
3:15 AM 35.6 °F 25.2 °F 14.0 °F 41% 30.08 in 10.0 mi WNW 18.4 mph - N/A   Clear
3:35 AM 33.8 °F 24.8 °F 14.0 °F 44% 30.08 in 10.0 mi West 12.7 mph - N/A   Clear
3:55 AM 32.0 °F 23.0 °F 15.8 °F 51% 30.08 in 10.0 mi WNW 11.5 mph - N/A   Clear
4:15 AM 33.8 °F 22.2 °F 14.0 °F 44% 30.07 in 10.0 mi WNW 20.7 mph 24.2 mph N/A   Clear
4:35 AM 35.6 °F 24.2 °F 14.0 °F 41% 30.06 in 10.0 mi WNW 21.9 mph 28.8 mph N/A   Clear
4:55 AM 33.8 °F 22.2 °F 14.0 °F 44% 30.06 in 10.0 mi WNW 20.7 mph 27.6 mph N/A   Clear
5:15 AM 33.8 °F 21.6 °F 14.0 °F 44% 30.07 in 10.0 mi NW 23.0 mph 29.9 mph N/A   Clear
5:35 AM 33.8 °F 20.8 °F 14.0 °F 44% 30.06 in 10.0 mi WNW 26.5 mph 29.9 mph N/A   Clear
5:55 AM 33.8 °F 21.3 °F 14.0 °F 44% 30.07 in 10.0 mi WNW 24.2 mph 28.8 mph N/A   Clear
6:15 AM 33.8 °F 22.2 °F 14.0 °F 44% 30.08 in 10.0 mi NW 20.7 mph 27.6 mph N/A   Clear
6:35 AM 33.8 °F 23.2 °F 14.0 °F 44% 30.09 in 10.0 mi WNW 17.3 mph 26.5 mph N/A   Clear
6:55 AM 33.8 °F 24.8 °F 15.8 °F 48% 30.10 in 10.0 mi WNW 12.7 mph 21.9 mph N/A   Clear
7:15 AM 33.8 °F 24.8 °F 15.8 °F 48% 30.11 in 10.0 mi WNW 12.7 mph - N/A   Clear
7:35 AM 33.8 °F 25.3 °F 15.8 °F 48% 30.12 in 10.0 mi WNW 11.5 mph 19.6 mph N/A   Clear
7:55 AM 33.8 °F 25.3 °F 15.8 °F 48% 30.14 in 10.0 mi WNW 11.5 mph 18.4 mph N/A   Clear
8:15 AM 35.6 °F 26.6 °F 15.8 °F 44% 30.15 in 10.0 mi WNW 13.8 mph 19.6 mph N/A   Clear
8:35 AM 37.4 °F 27.2 °F 15.8 °F 41% 30.15 in 10.0 mi WNW 19.6 mph - N/A   Clear
8:55 AM 37.4 °F 26.1 °F 15.8 °F 41% 30.15 in 10.0 mi NW 24.2 mph 28.8 mph N/A   Clear
9:15 AM 41.0 °F 30.9 °F 15.8 °F 36% 30.16 in 10.0 mi NW 24.2 mph 33.4 mph N/A   Clear
9:35 AM 41.0 °F 30.0 °F 15.8 °F 36% 30.18 in 10.0 mi NNW 28.8 mph 35.7 mph N/A   Clear
9:55 AM 41.0 °F 29.7 °F 15.8 °F 36% 30.16 in 10.0 mi NNW 31.1 mph 42.6 mph N/A   Clear
10:15 AM 41.0 °F 29.7 °F 15.8 °F 36% 30.16 in 10.0 mi NNW 31.1 mph 43.7 mph N/A   Clear
10:35 AM 42.8 °F 31.3 °F 17.6 °F 36% 30.15 in 10.0 mi NNW 36.8 mph 46.0 mph N/A   Clear
10:55 AM 42.8 °F 32.1 °F 17.6 °F 36% 30.17 in 10.0 mi NNW 31.1 mph 43.7 mph N/A   Clear
11:15 AM 42.8 °F 33.3 °F 17.6 °F 36% 30.19 in 10.0 mi NNW 24.2 mph 34.5 mph N/A   Clear
11:35 AM 42.8 °F 33.8 °F 17.6 °F 36% 30.19 in 10.0 mi NNW 21.9 mph 34.5 mph N/A   Clear
11:55 AM 44.6 °F 35.7 °F 17.6 °F 34% 30.18 in 10.0 mi NNW 24.2 mph 28.8 mph N/A   Clear
12:15 PM 44.6 °F 35.5 °F 17.6 °F 34% 30.17 in 10.0 mi NNW 25.3 mph 31.1 mph N/A   Clear
12:35 PM 44.6 °F 35.9 °F 17.6 °F 34% 30.16 in 10.0 mi NW 23.0 mph 31.1 mph N/A   Clear
12:55 PM 46.4 °F 37.9 °F 17.6 °F 32% 30.16 in 10.0 mi NW 25.3 mph 32.2 mph N/A   Clear
1:15 PM 46.4 °F 37.7 °F 15.8 °F 29% 30.16 in 10.0 mi NNW 26.5 mph 32.2 mph N/A   Clear
1:35 PM 46.4 °F 37.9 °F 15.8 °F 29% 30.16 in 10.0 mi NNW 25.3 mph 31.1 mph N/A   Clear
1:55 PM 46.4 °F 38.3 °F 14.0 °F 27% 30.15 in 10.0 mi NNW 23.0 mph 29.9 mph N/A   Clear
2:15 PM 46.4 °F 39.0 °F 15.8 °F 29% 30.16 in 10.0 mi NW 19.6 mph 27.6 mph N/A   Clear
2:35 PM 46.4 °F 38.5 °F 15.8 °F 29% 30.16 in 10.0 mi NW 21.9 mph 31.1 mph N/A   Clear
2:55 PM 46.4 °F 39.0 °F 15.8 °F 29% 30.17 in 10.0 mi NW 19.6 mph 25.3 mph N/A   Clear
3:15 PM 46.4 °F 38.7 °F 15.8 °F 29% 30.16 in 10.0 mi NW 20.7 mph 26.5 mph N/A   Clear
3:35 PM 46.4 °F 39.2 °F 15.8 °F 29% 30.16 in 10.0 mi NW 18.4 mph - N/A   Clear
3:55 PM 44.6 °F 37.8 °F 15.8 °F 31% 30.16 in 10.0 mi NW 15.0 mph - N/A   Clear
4:15 PM 44.6 °F 38.1 °F 15.8 °F 31% 30.15 in 10.0 mi NNW 13.8 mph - N/A   Clear
4:35 PM 41.0 °F 34.7 °F 15.8 °F 36% 30.15 in 10.0 mi NNW 10.4 mph - N/A   Clear
4:55 PM 37.4 °F - 15.8 °F 41% 30.15 in 10.0 mi Calm Calm - N/A   Clear
5:15 PM 37.4 °F - 15.8 °F 41% 30.15 in 10.0 mi Calm Calm - N/A   Clear
5:35 PM 35.6 °F - 15.8 °F 44% 30.15 in 10.0 mi Calm Calm - N/A   Clear
5:55 PM 32.0 °F - 15.8 °F 51% 30.15 in 10.0 mi Calm Calm - N/A   Clear
6:15 PM 32.0 °F 25.6 °F 17.6 °F 55% 30.15 in 10.0 mi SW 6.9 mph - N/A   Clear
6:35 PM 32.0 °F - 17.6 °F 55% 30.14 in 10.0 mi Calm Calm - N/A   Clear
6:55 PM 32.0 °F 27.5 °F 17.6 °F 55% 30.14 in 10.0 mi WSW 4.6 mph - N/A   Clear
7:15 PM 30.2 °F 23.4 °F 17.6 °F 60% 30.14 in 10.0 mi South 6.9 mph - N/A   Clear
7:35 PM 30.2 °F 25.4 °F 17.6 °F 60% 30.13 in 10.0 mi WSW 4.6 mph - N/A   Clear
7:55 PM 26.6 °F 22.6 °F 17.6 °F 69% 30.12 in 10.0 mi West 3.5 mph - N/A   Clear
8:15 PM 30.2 °F 21.3 °F 17.6 °F 60% 30.11 in 10.0 mi West 10.4 mph - N/A   Clear
8:35 PM 30.2 °F 20.8 °F 17.6 °F 60% 30.11 in 10.0 mi West 11.5 mph - N/A   Clear
8:55 PM 32.0 °F 23.6 °F 14.0 °F 48% 30.11 in 10.0 mi West 10.4 mph - N/A   Clear
9:15 PM 30.2 °F 25.4 °F 14.0 °F 51% 30.12 in 10.0 mi SW 4.6 mph - N/A   Clear
9:35 PM 32.0 °F 27.5 °F 17.6 °F 55% 30.12 in 10.0 mi SSW 4.6 mph - N/A   Clear
9:55 PM 26.6 °F - 17.6 °F 69% 30.12 in 10.0 mi Calm Calm - N/A   Clear
10:15 PM 32.0 °F 27.5 °F 17.6 °F 55% 30.12 in 10.0 mi WSW 4.6 mph - N/A   Clear
10:35 PM 30.2 °F 21.9 °F 17.6 °F 60% 30.11 in 10.0 mi WSW 9.2 mph - N/A   Clear
10:55 PM 30.2 °F 22.6 °F 17.6 °F 60% 30.10 in 10.0 mi WSW 8.1 mph - N/A   Clear
11:15 PM 30.2 °F 20.8 °F 17.6 °F 60% 30.09 in 10.0 mi SW 11.5 mph - N/A   Clear
11:35 PM 28.4 °F 19.1 °F 15.8 °F 59% 30.08 in 10.0 mi SSW 10.4 mph - N/A   Clear
11:55 PM 26.6 °F 16.2 °F 15.8 °F 64% 30.07 in 10.0 mi South 11.5 mph - N/A   Clear